College Park, MD

1:39 AM EST on December 06, 2019 (GMT -0500)
College Park

Weather History for KCGS - October, 2019

Change the Weather History Date:

Thursday, October 24, 2019

  Actual Average Record
Temperature  
Mean Temperature 52 °F -  
Max Temperature 69 °F 66 °F 83 °F (1978)
Min Temperature 36 °F 44 °F 25 °F (1964)
Degree Days  
Heating Degree Days 12    
Growing Degree Days 2 (Base 50)    
Moisture  
Dew Point 38 °F    
Average Humidity 69    
Maximum Humidity 94    
Minimum Humidity 25    
Precipitation  
Precipitation 0.00 in - - ()
Sea Level Pressure  
Sea Level Pressure 30.30 in    
Wind  
Wind Speed 1 mph (South)    
Max Wind Speed 8 mph    
Max Gust Speed -    
Visibility 10 miles    
Events      
Averages and records for this station are not official NWS values.
T = Trace of Precipitation, MM = Missing Value Source: NWS Daily Summary

Daily Weather History Graph

Daily Weather History Graph

Search for Another Location

Airport or City:

Astronomy

Oct. 24, 2019 Rise Set
Actual Time 7:26 AM EDT 6:17 PM EDT
Civil Twilight 6:58 AM EDT 6:44 PM EDT
Nautical Twilight 6:27 AM EDT 7:15 PM EDT
Astronomical Twilight 5:56 AM EDT 7:46 PM EDT
Moon 2:56 AM EDT (10/24) 4:40 PM EDT (10/24)
Length of Visible Light 11h 45m
Length of Day
10h 50m
Waning Crescent, 17% of the Moon is Illuminated
Oct 24
Waning Crescent
Oct 27
New
Nov 4
First Quarter
Nov 12
Full
Nov 19
Last Quarter

Hourly Weather History & Observations

Time (EDT) Temp. Dew Point Humidity Pressure Visibility Wind Dir Wind Speed Gust Speed Precip Events Conditions
12:03 AM 41.7 °F 37.4 °F 85% 30.22 in 10.0 mi Calm Calm - N/A   Clear
12:23 AM 41.5 °F 37.8 °F 86% 30.22 in 10.0 mi Calm Calm - N/A   Clear
12:43 AM 41.2 °F 38.3 °F 89% 30.22 in 10.0 mi Calm Calm - N/A   Clear
1:03 AM 40.8 °F 38.7 °F 92% 30.22 in 10.0 mi Calm Calm - N/A   Clear
1:23 AM 40.5 °F 38.8 °F 94% 30.24 in 10.0 mi Calm Calm - N/A   Clear
1:43 AM 39.9 °F 38.1 °F 93% 30.24 in 10.0 mi Calm Calm - N/A   Clear
2:03 AM 39.7 °F 38.1 °F 94% 30.24 in 10.0 mi Calm Calm - N/A   Clear
2:23 AM 39.4 °F 37.8 °F 94% 30.25 in 10.0 mi Calm Calm - N/A   Clear
2:43 AM 39.2 °F 37.6 °F 94% 30.25 in 10.0 mi Calm Calm - N/A   Clear
3:03 AM 39.2 °F 37.4 °F 93% 30.25 in 10.0 mi Calm Calm - N/A   Clear
3:23 AM 39.2 °F 37.4 °F 93% 30.26 in 10.0 mi Calm Calm - N/A   Clear
3:43 AM 38.3 °F 36.7 °F 94% 30.26 in 10.0 mi Calm Calm - N/A   Clear
4:03 AM 38.5 °F 36.7 °F 93% 30.26 in 10.0 mi Calm Calm - N/A   Clear
4:23 AM 38.3 °F 36.5 °F 93% 30.27 in 10.0 mi Calm Calm - N/A   Clear
4:43 AM 38.3 °F 36.5 °F 93% 30.28 in 10.0 mi Calm Calm - N/A   Clear
5:03 AM 37.8 °F 36.1 °F 94% 30.29 in 10.0 mi Calm Calm - N/A   Clear
5:23 AM 37.8 °F 36.1 °F 94% 30.30 in 10.0 mi Calm Calm - N/A   Clear
5:43 AM 37.6 °F 36.0 °F 94% 30.30 in 10.0 mi Calm Calm - N/A   Clear
6:03 AM 37.4 °F 35.6 °F 93% 30.31 in 10.0 mi Calm Calm - N/A   Clear
6:23 AM 37.4 °F 35.6 °F 93% 30.32 in 10.0 mi Calm Calm - N/A   Clear
6:43 AM 37.4 °F 35.6 °F 93% 30.32 in 10.0 mi Calm Calm - N/A   Clear
7:03 AM 36.9 °F 35.2 °F 94% 30.32 in 10.0 mi Calm Calm - N/A   Clear
7:23 AM 37.0 °F 35.4 °F 94% 30.33 in 10.0 mi Calm Calm - N/A   Clear
7:43 AM 36.9 °F 35.2 °F 94% 30.32 in 10.0 mi Calm Calm - N/A   Clear
8:03 AM 37.6 °F 36.0 °F 94% 30.33 in 10.0 mi Calm Calm - N/A   Clear
8:23 AM 39.7 °F 37.9 °F 93% 30.34 in 10.0 mi Calm Calm - N/A   Clear
8:43 AM - - N/A% 30.35 in 10.0 mi Calm Calm - N/A   Clear
9:03 AM 44.6 °F 43.0 °F 94% 30.35 in 10.0 mi Calm Calm - N/A   Clear
9:23 AM 46.6 °F 44.8 °F 93% 30.35 in 10.0 mi Calm Calm - N/A   Clear
9:43 AM 50.2 °F 39.7 °F 67% 30.35 in 10.0 mi Calm Calm - N/A   Clear
10:03 AM 52.2 °F 40.5 °F 64% 30.35 in 10.0 mi Calm Calm - N/A   Clear
10:23 AM 55.4 °F 38.7 °F 53% 30.35 in 10.0 mi Calm Calm - N/A   Clear
10:43 AM 58.1 °F 39.0 °F 49% 30.35 in 10.0 mi Calm Calm - N/A   Clear
11:03 AM 59.7 °F 39.4 °F 47% 30.35 in 10.0 mi Calm Calm - N/A   Clear
11:23 AM 62.1 °F 35.2 °F 37% 30.35 in 10.0 mi SE 3.5 mph - N/A   Clear
11:43 AM 63.3 °F 30.6 °F 29% 30.34 in 10.0 mi South 4.6 mph - N/A   Clear
12:03 PM 64.6 °F 30.4 °F 28% 30.34 in 10.0 mi ESE 5.8 mph - N/A   Clear
12:23 PM 65.1 °F 31.5 °F 28% 30.33 in 10.0 mi SE 4.6 mph - N/A   Clear
12:43 PM 65.5 °F 31.8 °F 28% 30.32 in 10.0 mi ESE 4.6 mph - N/A   Clear
1:03 PM 66.9 °F 32.0 °F 27% 30.31 in 10.0 mi SSE 5.8 mph - N/A   Clear
1:23 PM 67.3 °F 32.2 °F 27% 30.31 in 10.0 mi SSW 3.5 mph - N/A   Clear
1:43 PM 67.6 °F 32.5 °F 27% 30.30 in 10.0 mi SE 5.8 mph - N/A   Clear
2:23 PM 68.9 °F 31.5 °F 25% 30.28 in 10.0 mi SW 8.1 mph - N/A   Clear
2:43 PM 68.5 °F 31.5 °F 25% 30.28 in 10.0 mi Calm Calm - N/A   Clear
3:03 PM 69.1 °F 32.0 °F 25% 30.28 in 10.0 mi SW 4.6 mph - N/A   Clear
3:23 PM 69.3 °F 32.9 °F 26% 30.28 in 10.0 mi Calm Calm - N/A   Clear
3:43 PM 69.1 °F 33.1 °F 26% 30.27 in 10.0 mi Calm Calm - N/A   Clear
4:03 PM 68.9 °F 32.0 °F 25% 30.27 in 10.0 mi South 4.6 mph - N/A   Clear
4:23 PM 68.9 °F 32.2 °F 26% 30.27 in 10.0 mi Calm Calm - N/A   Clear
4:43 PM 68.2 °F 33.4 °F 28% 30.28 in 10.0 mi SSW 5.8 mph - N/A   Clear
5:03 PM 68.0 °F 36.9 °F 32% 30.27 in 10.0 mi Calm Calm - N/A   Clear
5:23 PM 67.6 °F 37.8 °F 33% 30.27 in 10.0 mi Calm Calm - N/A   Clear
6:03 PM 65.7 °F 38.5 °F 37% 30.28 in 10.0 mi Calm Calm - N/A   Clear
6:23 PM 60.3 °F 43.3 °F 54% 30.28 in 10.0 mi Calm Calm - N/A   Clear
6:43 PM 57.7 °F 43.3 °F 59% 30.28 in 10.0 mi Calm Calm - N/A   Clear
7:03 PM 56.1 °F 45.7 °F 68% 30.28 in 10.0 mi Calm Calm - N/A   Clear
7:23 PM 54.0 °F 44.8 °F 71% 30.29 in 10.0 mi Calm Calm - N/A   Clear
7:43 PM 53.6 °F 44.2 °F 71% 30.29 in 10.0 mi Calm Calm - N/A   Clear
8:03 PM 52.5 °F 44.8 °F 75% 30.30 in 10.0 mi Calm Calm - N/A   Clear
8:23 PM 52.7 °F 44.8 °F 74% 30.30 in 10.0 mi Calm Calm - N/A   Clear
8:43 PM 51.6 °F 45.1 °F 79% 30.30 in 10.0 mi Calm Calm - N/A   Clear
9:03 PM 51.4 °F 45.3 °F 80% 30.30 in 10.0 mi Calm Calm - N/A   Clear
9:23 PM 51.3 °F 45.5 °F 81% 30.31 in 10.0 mi Calm Calm - N/A   Clear
9:43 PM 50.2 °F 45.0 °F 82% 30.31 in 10.0 mi Calm Calm - N/A   Clear
10:03 PM 49.1 °F 44.6 °F 84% 30.32 in 10.0 mi Calm Calm - N/A   Clear
10:23 PM 49.1 °F 46.0 °F 89% 30.32 in 10.0 mi Calm Calm - N/A   Clear
10:43 PM 48.0 °F 46.2 °F 93% 30.33 in 10.0 mi Calm Calm - N/A   Clear
11:03 PM 47.7 °F 45.9 °F 93% 30.33 in 10.0 mi Calm Calm - N/A   Clear
11:23 PM 47.7 °F 45.9 °F 93% 30.32 in 10.0 mi Calm Calm - N/A   Clear
11:43 PM 47.3 °F 45.5 °F 93% 30.32 in 10.0 mi Calm Calm - N/A   Clear